Zurück zum Katalog

SL-12 DEB

AktivHEO
NORAD 42974·DEBRIS·🇷🇺 Russia

Gestartet Sep 2, 2010 von Baikonur Cosmodrome

Loading…

Nächste Überflüge (nächste 24 Stunden)

TLE

AktuellSource: Space-Track

Epoche: Sep 13, 2026, 15:56 UTC

1 42974U 10041P   26256.66453436 -.00000024  00000-0  13649-3 0  9993
2 42974  65.0240  27.2181 5615062 305.5133  14.2192  4.32644873141760

Verfolge SL-12 DEB in Echtzeit mit AllMySat

Download on the App Store